{"data":{"norad_id":87616,"intl_designator":"","name":"UNKNOWN","alt_names":[],"object_type":"UNKNOWN","status":"UNKNOWN","operator":null,"country":null,"launch_date":null,"launch_site_code":null,"launch_vehicle":null,"mission":null,"orbit_class":"UNKNOWN","rcs_meters":null,"size_class":null,"mass_kg":null,"dimensions":null,"purposes":[],"wikipedia_slug":null,"has_3d_model":false,"image_url":null,"decayed_at":null,"tle_current":{"epoch":"2026-05-24T03:08:16.341216Z","epoch_age_seconds":149910,"freshness":"FRESH","line1":"1 87616U          26144.13074469 -.00000183  00000+0 -43392-3 0  9996","line2":"2 87616  66.0345 189.2017 0623261  69.0328 326.7950 12.47019768556485","mean_motion":12.47019768,"eccentricity":0.0623261,"inclination_deg":66.0345,"raan_deg":189.2017,"arg_perigee_deg":69.0328,"mean_anomaly_deg":326.795,"bstar":-0.00043392,"rev_number":55648,"period_min":115.47531458218,"perigee_km":987.40613027932,"apogee_km":1966.5644020241,"semimajor_km":7855.1222661517,"source":"CELESTRAK","updated_at":"2026-05-25T13:38:11.674729Z"}}}